Weather History for LKNA - January, 2013

Change the Weather History Date:

Wednesday, January 2, 2013

  Actual Average Record
Temperature  
Mean Temperature 32 °F -  
Max Temperature 37 °F - - ()
Min Temperature 26 °F - - ()
Degree Days  
Heating Degree Days 34    
Moisture  
Dew Point 29 °F    
Average Humidity 94    
Maximum Humidity 100    
Minimum Humidity 81    
Precipitation  
Precipitation 0.00 in - - ()
Sea Level Pressure  
Sea Level Pressure 30.12 in    
Wind  
Wind Speed 5 mph ()    
Max Wind Speed 14 mph    
Max Gust Speed -    
Visibility 1.8 miles    
Events Fog , Rain , Snow    
T = Trace of Precipitation, MM = Missing Value Source: Averaged Metar Reports

Daily Weather History Graph

Daily Weather History Graph

Search for Another Location

Airport or City:

Trip Planner

Search our weather history database for the weather conditions in past years. The results will help you decide how hot, cold, wet, or windy it might be!

Date:

Astronomy

Jan. 02, 2013 Rise Set
Actual Time 7:50 AM CET 4:09 PM CET
Civil Twilight 7:13 AM CET 4:46 PM CET
Nautical Twilight 6:32 AM CET 5:26 PM CET
Astronomical Twilight 5:53 AM CET 6:05 PM CET
Moon 9:54 PM CET (1/2) 9:55 AM CET (1/2)
Length of Visible Light 9h 33m
Length of Day
8h 18m
Waning Gibbous, 77% of the Moon is Illuminated
Jan 2
Waning Gibbous
Jan 5
Last Quarter
Jan 11
New
Jan 19
First Quarter
Jan 27
Full

Hourly Weather History & Observations

Time (CET) Temp. Windchill Dew Point Humidity Pressure Visibility Wind Dir Wind Speed Gust Speed Precip Events Conditions
12:00 AM 26.6 °F 20.0 °F 26.6 °F 100% 29.95 in 0.1 mi SSE 5.8 mph - N/A Fog Light Freezing Fog
1:00 AM 28.4 °F 23.3 °F 26.6 °F 93% 29.95 in 0.1 mi SSE 4.6 mph - N/A Fog Light Freezing Fog
2:00 AM 28.4 °F 22.2 °F 26.6 °F 93% 29.95 in 0.1 mi South 5.8 mph - N/A Fog Light Freezing Fog
3:00 AM 28.4 °F 22.2 °F 26.6 °F 93% 29.98 in 0.1 mi South 5.8 mph - N/A Fog Light Freezing Fog
4:00 AM 26.6 °F 20.0 °F 26.6 °F 100% 29.98 in 0.1 mi South 5.8 mph - N/A Fog Light Freezing Fog
4:45 AM 26.6 °F 19.1 °F 26.6 °F 100% 29.98 in 0.1 mi South 6.9 mph - N/A Fog , Rain Light Freezing Rain
5:00 AM 26.6 °F 20.0 °F 26.6 °F 100% 29.98 in 0.1 mi South 5.8 mph - N/A Fog , Rain Light Freezing Rain
5:09 AM 26.6 °F 20.0 °F 26.6 °F 100% 29.98 in 0.1 mi SSE 5.8 mph - N/A Fog Light Freezing Fog
5:39 AM 26.6 °F 20.0 °F 26.6 °F 100% 30.01 in 0.1 mi South 5.8 mph - N/A Fog Light Freezing Rain
6:00 AM 26.6 °F 19.1 °F 26.6 °F 100% 30.01 in 0.1 mi South 6.9 mph - N/A Fog Light Freezing Rain
7:00 AM 28.4 °F 23.3 °F 26.6 °F 93% 30.04 in 0.2 mi South 4.6 mph - N/A Fog , Rain Light Freezing Rain
7:31 AM 28.4 °F 24.6 °F 26.6 °F 93% 30.04 in 0.3 mi SSW 3.5 mph - N/A Fog , Snow Light Snow
8:00 AM 28.4 °F 24.6 °F 28.4 °F 100% 30.06 in 0.5 mi SSW 3.5 mph - N/A Fog , Snow Light Snow
9:00 AM 28.4 °F 24.6 °F 28.4 °F 100% 30.09 in 0.6 mi South 3.5 mph - N/A Fog Light Freezing Fog
10:00 AM 30.2 °F - 28.4 °F 93% 30.12 in 0.7 mi Variable 2.3 mph - N/A   Mostly Cloudy
10:51 AM 30.2 °F - 30.2 °F 100% 30.15 in 0.8 mi Variable 2.3 mph - N/A   Mostly Cloudy
11:00 AM 30.2 °F - 30.2 °F 100% 30.15 in 0.8 mi SW 1.2 mph - N/A   Mostly Cloudy
11:34 AM 32.0 °F - 32.0 °F 100% 30.15 in 0.9 mi West 2.3 mph - N/A   Mostly Cloudy
12:00 PM 32.0 °F 28.7 °F 32.0 °F 100% 30.15 in 1.6 mi WSW 3.5 mph - N/A   Mostly Cloudy
12:22 PM 32.0 °F 28.7 °F 32.0 °F 100% 30.15 in 3.1 mi WSW 3.5 mph - N/A   Mostly Cloudy
1:00 PM 35.6 °F 29.9 °F 35.6 °F 100% 30.15 in 5.0 mi West 6.9 mph - N/A   Unknown
2:00 PM 37.4 °F 30.3 °F 35.6 °F 93% 30.18 in - West 10.4 mph - N/A   Clear
3:00 PM 37.4 °F 28.9 °F 32.0 °F 81% 30.18 in 6.2 mi West 13.8 mph - N/A   Scattered Clouds
4:00 PM 35.6 °F 28.6 °F 30.2 °F 81% 30.21 in - West 9.2 mph - N/A   Clear
5:00 PM 33.8 °F 27.0 °F 30.2 °F 87% 30.24 in - West 8.1 mph - N/A   Clear
6:00 PM 32.0 °F 26.4 °F 28.4 °F 87% 30.27 in - West 5.8 mph - N/A   Clear
7:00 PM 33.8 °F 25.8 °F 28.4 °F 81% 30.30 in - West 10.4 mph - N/A   Clear
8:00 PM 33.8 °F 25.8 °F 28.4 °F 81% 30.30 in 6.2 mi West 10.4 mph - N/A   Scattered Clouds
9:00 PM 33.8 °F 25.3 °F 30.2 °F 87% 30.33 in 6.2 mi West 11.5 mph - N/A   Mostly Cloudy
10:00 PM 33.8 °F 25.3 °F 28.4 °F 81% 30.36 in 6.2 mi West 11.5 mph - N/A   Mostly Cloudy
11:00 PM 33.8 °F 25.8 °F 30.2 °F 87% 30.36 in 6.2 mi West 10.4 mph - N/A   Mostly Cloudy